Change the Weather History Date:

Wednesday, December 19, 2012

  Actual Average Record
Temperature  
Mean Temperature 38 °F -  
Max Temperature 42 °F 34 °F 45 °F (1997)
Min Temperature 35 °F 17 °F 6 °F (2002)
Degree Days  
Heating Degree Days 26    
Moisture  
Dew Point 30 °F    
Average Humidity 72    
Maximum Humidity 89    
Minimum Humidity 60    
Precipitation  
Precipitation 0.01 in - - ()
Sea Level Pressure  
Sea Level Pressure 29.75 in    
Wind  
Wind Speed 8 mph (NW)    
Max Wind Speed 21 mph    
Max Gust Speed 29 mph    
Visibility 10 miles    
Events      
Averages and records for this station are not official NWS values.
T = Trace of Precipitation, MM = Missing Value Source: NWS Daily Summary

Daily Weather History Graph

Daily Weather History Graph

Search for Another Location

Airport or City:

Trip Planner

Search our weather history database for the weather conditions in past years. The results will help you decide how hot, cold, wet, or windy it might be!

Date:

Astronomy

Dec. 19, 2012 Rise Set
Actual Time 7:14 AM EST 4:18 PM EST
Civil Twilight 6:42 AM EST 4:50 PM EST
Nautical Twilight 6:07 AM EST 5:25 PM EST
Astronomical Twilight 5:32 AM EST 6:00 PM EST
Moon 11:14 AM EST (12/19) 11:52 PM EST (12/19)
Length of Visible Light 10h 07m
Length of Day
9h 03m
Waxing Crescent, 45% of the Moon is Illuminated
Dec 19
Waxing Crescent
Dec 20
First Quarter
Dec 28
Full
Jan 4
Last Quarter
Jan 11
New

Hourly Weather History & Observations

Time (EST) Temp. Windchill Dew Point Humidity Pressure Visibility Wind Dir Wind Speed Gust Speed Precip Events Conditions
12:52 AM 39.0 °F 33.4 °F 34.0 °F 82% 29.50 in 10.0 mi West 8.1 mph - N/A   Overcast
1:52 AM 37.0 °F - 34.0 °F 89% 29.51 in 10.0 mi Calm Calm - N/A   Mostly Cloudy
2:52 AM 36.0 °F 32.1 °F 32.0 °F 86% 29.52 in 10.0 mi WNW 4.6 mph - N/A   Overcast
3:52 AM 37.0 °F 30.4 °F 30.9 °F 79% 29.53 in 10.0 mi WNW 9.2 mph - 0.01 in   Overcast
4:52 AM 37.0 °F 33.3 °F 30.9 °F 79% 29.55 in 10.0 mi NW 4.6 mph - N/A   Overcast
5:52 AM 37.0 °F 33.3 °F 30.9 °F 79% 29.57 in 10.0 mi WNW 4.6 mph - N/A   Overcast
6:52 AM 37.0 °F 32.4 °F 30.9 °F 79% 29.59 in 10.0 mi NNW 5.8 mph - N/A   Overcast
7:52 AM 37.9 °F 30.9 °F 30.0 °F 73% 29.61 in 10.0 mi NW 10.4 mph - N/A   Overcast
8:52 AM 39.0 °F 32.8 °F 30.0 °F 70% 29.64 in 10.0 mi NW 9.2 mph - N/A   Overcast
9:52 AM 41.0 °F 33.9 °F 28.9 °F 62% 29.65 in 10.0 mi NW 12.7 mph 21.9 mph N/A   Scattered Clouds
10:52 AM 41.0 °F 33.9 °F 28.9 °F 62% 29.66 in 10.0 mi NW 12.7 mph 20.7 mph N/A   Overcast
11:52 AM 42.1 °F 35.7 °F 28.9 °F 60% 29.69 in 10.0 mi NNW 11.5 mph 25.3 mph N/A   Overcast
12:52 PM 42.1 °F 33.1 °F 28.9 °F 60% 29.73 in 10.0 mi NNW 20.7 mph 28.8 mph N/A   Overcast
1:52 PM 42.1 °F 34.5 °F 28.9 °F 60% 29.75 in 10.0 mi NNW 15.0 mph 25.3 mph N/A   Overcast
2:52 PM 42.1 °F 35.7 °F 28.9 °F 60% 29.79 in 10.0 mi NNW 11.5 mph 21.9 mph N/A   Overcast
3:52 PM 41.0 °F 33.5 °F 28.9 °F 62% 29.83 in 10.0 mi NNW 13.8 mph 20.7 mph N/A   Overcast
4:52 PM 39.9 °F 34.5 °F 30.0 °F 68% 29.86 in 10.0 mi North 8.1 mph 17.3 mph N/A   Overcast
5:52 PM 39.0 °F 32.8 °F 30.9 °F 73% 29.90 in 10.0 mi North 9.2 mph - N/A   Overcast
6:52 PM 39.0 °F 31.8 °F 30.9 °F 73% 29.94 in 10.0 mi NNW 11.5 mph - N/A   Overcast
7:52 PM 37.9 °F 31.5 °F 30.0 °F 73% 29.97 in 10.0 mi NNW 9.2 mph - N/A   Overcast
8:52 PM 37.0 °F 31.6 °F 30.0 °F 76% 30.01 in 10.0 mi NNW 6.9 mph 17.3 mph N/A   Partly Cloudy
9:52 PM 35.1 °F 27.9 °F 28.9 °F 78% 30.02 in 10.0 mi NW 9.2 mph - N/A   Scattered Clouds
10:52 PM 36.0 °F 33.3 °F 30.0 °F 79% 30.05 in 10.0 mi North 3.5 mph - N/A   Overcast
11:52 PM 37.0 °F 31.0 °F 28.9 °F 73% 30.06 in 10.0 mi NNW 8.1 mph - N/A   Overcast